Weather History for San Jose, Costa Rica

Change the Weather History Date:

Friday, July 20, 2012

  Actual Average Record
Temperature  
Mean Temperature 76 °F -  
Max Temperature 81 °F 80 °F 86 °F (2000)
Min Temperature 69 °F 64 °F 64 °F (2001)
Cooling Degree Days 10    
Growing Degree Days 26 (Base 50)    
Moisture  
Dew Point 64 °F    
Average Humidity 69    
Maximum Humidity 94    
Minimum Humidity 39    
Precipitation  
Precipitation 0.04 in 0.32 in - ()
Sea Level Pressure  
Sea Level Pressure 29.93 in    
Wind  
Wind Speed 5 mph ()    
Max Wind Speed 13 mph    
Max Gust Speed -    
Visibility 7.3 miles    
Events Fog , Rain    
Averages and records for this station are not official NWS values.
T = Trace of Precipitation, MM = Missing Value Source: Averaged Metar Reports

Daily Weather History Graph

Daily Weather History Graph

Search for Another Location

Airport:

Trip Planner

Search our weather history database for the weather conditions in past years. The results will help you decide how hot, cold, wet, or windy it might be!

Date:

Astronomy

Jul. 20, 2012 Rise Set
Actual Time 5:24 AM CST 6:01 PM CST
Civil Twilight 5:01 AM CST 6:24 PM CST
Nautical Twilight 4:35 AM CST 6:50 PM CST
Astronomical Twilight 4:08 AM CST 7:17 PM CST
Moon 6:34 AM CST (7/20) 7:13 PM CST (7/20)
Length of Visible Light 13h 22m
Length of Day
12h 37m
Waxing Crescent, 3% of the Moon is Illuminated
Jul 20
Waxing Crescent
Jul 26
First Quarter
Aug 1
Full
Aug 9
Last Quarter
Aug 17
New

Hourly Weather History & Observations

Time (CST) Temp. Heat Index Dew Point Humidity Pressure Visibility Wind Dir Wind Speed Gust Speed Precip Events Conditions
12:00 AM 71 °F - 62 °F 67% 29.84 in 12 mi ESE 4.6 mph - -   Scattered Clouds
12:00 AM 71.6 °F - 62.6 °F 73% 29.99 in 6.2 mi ESE 4.6 mph - N/A   Scattered Clouds
1:00 AM 71.6 °F - 62.6 °F 73% 29.97 in 6.2 mi ENE 4.6 mph - N/A   Partly Cloudy
2:00 AM 71.6 °F - 60.8 °F 69% 29.96 in - East 4.6 mph - N/A   Clear
3:00 AM 72 °F - 63 °F 65% 29.80 in 12 mi Calm Calm - -   Partly Cloudy
3:00 AM 71.6 °F - 62.6 °F 73% 29.95 in - Calm Calm - N/A   Clear
4:00 AM 71.6 °F - 66.2 °F 83% 29.96 in - East 5.8 mph - N/A   Clear
5:00 AM 71.6 °F - 64.4 °F 78% 29.95 in - East 6.9 mph - N/A   Clear
6:00 AM 72 °F - 62 °F 63% 29.80 in 12 mi ENE 4.6 mph - -   Partly Cloudy
6:00 AM 71.6 °F - 62.6 °F 73% 29.95 in - ENE 4.6 mph - N/A   Clear
7:00 AM 75.2 °F - 64.4 °F 69% 29.97 in 6.2 mi East 2.3 mph - N/A   Mostly Cloudy
8:00 AM 77.0 °F - 64.4 °F 65% 29.99 in 6.2 mi ENE 8.1 mph - N/A   Mostly Cloudy
9:00 AM 77.0 °F - 64.4 °F 65% 29.99 in 6.2 mi East 10.4 mph - N/A   Mostly Cloudy
10:00 AM 82.4 °F 82.9 °F 60.8 °F 48% 30.00 in 6.2 mi ENE 8.1 mph - N/A   Mostly Cloudy
11:00 AM 80.6 °F 81.5 °F 60.8 °F 51% 29.99 in 6.2 mi ENE 12.7 mph - N/A   Mostly Cloudy
12:00 PM 81 °F - 60 °F 39% 29.81 in 12 mi ENE 10.4 mph - -   Overcast
12:00 PM 80.6 °F 81.5 °F 60.8 °F 51% 29.97 in 6.2 mi ENE 10.4 mph - N/A   Mostly Cloudy
1:00 PM 80.6 °F 81.8 °F 62.6 °F 54% 29.95 in 6.2 mi ENE 8.1 mph - N/A   Mostly Cloudy
2:00 PM 78.8 °F - 60.8 °F 54% 29.95 in 6.2 mi SE 6.9 mph - N/A   Mostly Cloudy
3:00 PM 78 °F - 62 °F 49% 29.75 in 12 mi SE 6.9 mph - -   Overcast
3:00 PM 78.8 °F - 62.6 °F 57% 29.93 in 6.2 mi SE 6.9 mph - N/A   Mostly Cloudy
4:00 PM 78.8 °F - 60.8 °F 54% 29.93 in 6.2 mi ESE 6.9 mph - N/A   Mostly Cloudy
5:00 PM 73.4 °F - 69.8 °F 88% 29.94 in 6.2 mi WSW 9.2 mph - N/A   Mostly Cloudy
5:31 PM 73.4 °F - 69.8 °F 88% 29.95 in 3.1 mi SW 6.9 mph - N/A Rain Light Rain
6:00 PM 72 °F - 69 °F 88% 29.79 in 9 mi SW 2.3 mph - - Fog Light Fog
6:00 PM 71.6 °F - 69.8 °F 94% 29.96 in 6.2 mi SW 2.3 mph - N/A   Drizzle
7:00 PM 71.6 °F - 68.0 °F 88% 29.98 in 6.2 mi SW 5.8 mph - N/A   Light Drizzle
9:00 PM 71.6 °F - 66.2 °F 83% 30.01 in 6.2 mi ENE 4.6 mph - N/A   Mostly Cloudy
10:00 PM 71.6 °F - 64.4 °F 78% 30.01 in 6.2 mi ESE 6.9 mph - N/A   Mostly Cloudy
11:00 PM 69.8 °F - 62.6 °F 78% 30.01 in 6.2 mi ENE 5.8 mph - N/A   Scattered Clouds